Simultaneous Nadir Overpasses (SNOs) Predictions

Prediction of SNOs between LANDSAT-8 and NOAA-19 Satellite Orbit:

Table of predicted SNOs for the next 14.0 days since TLE Epoch: 3/9/2024
Index Date (LANDSAT-8) Time (LANDSAT-8) Lat,Lon (LANDSAT-8) SZA (LANDSAT-8 ) Date (NOAA-19) Time (NOAA-19) Lat,Lon (NOAA-19) SZA (NOAA-19 ) Distance(km) Time Diff (sec)
1 03/10/2024 18:51:19 -80.81, 112.51 94.09 03/10/2024 18:50:28 -80.80, 112.44 94.12 1.58 51
2 03/10/2024 19:40:45 80.82, -79.74 85.92 03/10/2024 19:41:30 80.82, -79.66 85.95 1.44 45
3 03/13/2024 01:14:29 -80.81, 16.69 94.97 03/13/2024 01:13:33 -80.80, 16.72 94.99 0.94 56
4 03/13/2024 02:03:55 80.82,-175.59 85.04 03/13/2024 02:04:36 80.82,-175.67 85.05 1.51 41
5 03/15/2024 07:37:39 -80.80, -79.27 95.87 03/15/2024 07:36:39 -80.79, -79.42 95.91 2.71 60
6 03/15/2024 08:27:04 80.83, 88.77 84.19 03/15/2024 08:27:41 80.82, 88.60 84.17 3.39 37
7 03/17/2024 14:00:48 -80.80,-175.02 96.74 03/17/2024 13:59:43 -80.80,-174.89 96.75 2.46 65
8 03/17/2024 14:50:14 80.80, -7.34 83.26 03/17/2024 14:50:46 80.81, -7.20 83.29 2.76 32
9 03/19/2024 20:23:57 -80.79, 89.09 97.63 03/19/2024 20:22:48 -80.79, 89.23 97.65 2.47 69
10 03/19/2024 21:13:22 80.82,-102.91 82.41 03/19/2024 21:13:51 80.81,-103.08 82.40 3.39 29
11 03/22/2024 02:47:05 -80.77, -6.93 98.55 03/22/2024 02:45:53 -80.77, -7.07 98.59 2.54 72



Historial Predications of SNOs between LANDSAT-8 and NOAA-19
